FENGYUN 1C DEB, 36990

Orbit data source: Space-Track

FENGYUN 1C DEB, 36990 is space debris in SSO originally from a launch on Mon, 10 May 1999 UTC launched from the Taiyaun Space Center, China (TSC). Fengyun 1C debris stems from the Chinese weather satellite Fengyun-1C, which was intentionally destroyed by a Chinese anti-satellite missile in 2007. This event dramatically increased the amount of space debris, with thousands of trackable fragments posing hazards to satellites and human spaceflight. The Fengyun 1C debris cloud has become a focal point in discussions about space sustainability and the need for international regulations to prevent the creation of new debris.

Loading next visibility...
Identifier
36990, 1999-025EBW
Orbit
SSO
Country
Flag of CNCN / PRC
Related business
Manufacturer
Unknown
Mission
Spacecraft
Bus & Motor
Unknown
Mass
Unknown
Launch date (UTC)
1999-05-10 (27 years ago)
Launch vehicle
Unknown
Launch site
Taiyaun Space Center, China (TSC)
Object type
Payload
Rocket body
Debris
Shape & HBR
Unknown shape, 0.1 m
Radar Cross Section
Small (<0.1 m²)

Expand to show TLE details & history
Last TLE update: 1 week ago

TLE from 1 week ago
0 FENGYUN 1C DEB
1 36990U 99025EBW 26196.91881245  .00000389  00000-0  43658-3 0  9993
2 36990  96.5736  79.8149 0290356 153.5606 208.0693 13.57172007858062
Epoch: 2026-07-15T22:03Z
TLE epoch observation values (Epoch: 2026-07-15T22:03:05.395Z)
Latitude
-0.00007°
Longitude
175.27471°
Altitude
1,240.46 km
Speed
7.141 km/s
True Right ascension
05h 19m 15s
True Declination
0° 00' 00"
Sunlit
Object was in daylight at epoch
Visualization orbit readout
Latitude
Unknown
Longitude
Unknown
Altitude
Unknown
Speed
Unknown
Apparent Right ascension
Unknown
Apparent Declination
Unknown
Sunlit
N/A
Visualization observer readout
Local Sidereal Time
22:28:54
Azimuth
Unknown
Elevation
Unknown
Doppler factor
Unknown
Orbital elements
Apogee altitude
1,258.621 km
Perigee altitude
827.659 km
Semi-major axis
7,421.277 km
Eccentricity
0.02904
Inclination
96.5736°
RAAN
79.8149°
Arg. of periapsis
153.5606°
True anomaly
206.55252°
Mean anomaly
208.0693°
Eccentric anomaly
207.30612°
Mean motion
3.39489 °/min
Orbital period
106.04 mins
BSTAR
0.00043658
Loading maneuver chart data...
Computing Atmospheric mass density...

Documentation

Showing up to 5 results
|